TimePST,TemperatureF,Dew PointF,Humidity,Sea Level PressureIn,VisibilityMPH,Wind Direction,Wind SpeedMPH,Gust SpeedMPH,PrecipitationIn,Events,Conditions,WindDirDegrees,DateUTC
12:47 AM,42.8,41.0,93,30.18,1.8,Calm,Calm,-,N/A,,Scattered Clouds,0,2012-11-06 08:47:00
12:53 AM,43.0,41.0,93,30.19,1.0,Calm,Calm,-,N/A,,Mostly Cloudy,0,2012-11-06 08:53:00
1:00 AM,44.6,42.8,93,30.17,4.0,Calm,Calm,-,N/A,,Mostly Cloudy,0,2012-11-06 09:00:00
1:37 AM,44.6,42.8,93,30.16,6.0,Calm,Calm,-,N/A,,Overcast,0,2012-11-06 09:37:00
1:50 AM,44.6,42.8,93,30.15,6.0,Calm,Calm,-,N/A,,Overcast,0,2012-11-06 09:50:00
1:53 AM,45.0,43.0,93,30.18,5.0,North,3.5,-,N/A,,Overcast,350,2012-11-06 09:53:00
2:53 AM,46.9,45.0,93,30.15,5.0,North,3.5,-,0.00,,Overcast,360,2012-11-06 10:53:00
3:53 AM,46.9,45.0,93,30.12,7.0,Calm,Calm,-,N/A,,Overcast,0,2012-11-06 11:53:00
4:53 AM,46.9,45.0,93,30.10,7.0,Calm,Calm,-,N/A,,Overcast,0,2012-11-06 12:53:00
5:53 AM,46.9,45.0,93,30.08,9.0,Calm,Calm,-,N/A,,Overcast,0,2012-11-06 13:53:00
6:53 AM,46.9,45.0,93,30.06,8.0,Calm,Calm,-,N/A,,Overcast,0,2012-11-06 14:53:00
7:53 AM,48.0,46.0,93,30.06,8.0,Calm,Calm,-,N/A,,Overcast,0,2012-11-06 15:53:00
8:53 AM,48.9,46.0,90,30.04,10.0,Calm,Calm,-,N/A,,Overcast,0,2012-11-06 16:53:00
9:53 AM,50.0,46.0,86,30.01,10.0,Calm,Calm,-,0.01,,Mostly Cloudy,0,2012-11-06 17:53:00
10:53 AM,51.1,46.9,86,30.01,10.0,Calm,Calm,-,N/A,,Overcast,0,2012-11-06 18:53:00
11:53 AM,52.0,46.9,83,29.98,10.0,NNE,3.5,-,N/A,,Overcast,20,2012-11-06 19:53:00
12:53 PM,51.1,48.0,89,30.01,10.0,Calm,Calm,-,0.00,,Overcast,0,2012-11-06 20:53:00
1:53 PM,51.1,46.9,86,29.93,6.0,SE,9.2,-,0.04,Rain,Light Rain,130,2012-11-06 21:53:00
2:44 PM,50.0,46.4,87,29.93,10.0,WNW,5.8,-,0.00,,Overcast,300,2012-11-06 22:44:00
2:53 PM,50.0,46.9,89,29.96,10.0,WNW,6.9,-,0.00,,Overcast,290,2012-11-06 22:53:00
3:53 PM,50.0,48.0,93,29.93,10.0,Calm,Calm,-,N/A,,Overcast,0,2012-11-06 23:53:00
4:53 PM,50.0,48.0,93,29.91,10.0,East,3.5,-,N/A,,Overcast,90,2012-11-07 00:53:00
5:53 PM,53.1,48.9,86,29.92,10.0,SSE,5.8,-,N/A,,Overcast,160,2012-11-07 01:53:00
6:22 PM,55.4,48.2,77,29.89,10.0,SSE,12.7,-,N/A,,Overcast,150,2012-11-07 02:22:00
6:53 PM,55.9,48.9,77,29.94,10.0,South,11.5,19.6,N/A,,Overcast,190,2012-11-07 02:53:00
7:14 PM,55.4,48.2,77,29.93,10.0,SSE,16.1,25.3,N/A,,Overcast,160,2012-11-07 03:14:00
7:53 PM,54.0,46.0,75,29.96,10.0,South,6.9,19.6,N/A,,Scattered Clouds,170,2012-11-07 03:53:00
8:53 PM,52.0,46.0,80,29.97,10.0,Variable,5.8,-,N/A,,Clear,0,2012-11-07 04:53:00
9:53 PM,52.0,43.0,71,29.98,10.0,Variable,4.6,-,N/A,,Mostly Cloudy,0,2012-11-07 05:53:00
10:53 PM,53.1,41.0,64,29.99,10.0,Calm,Calm,-,N/A,,Mostly Cloudy,0,2012-11-07 06:53:00
11:53 PM,51.1,39.9,66,30.00,10.0,Variable,4.6,-,0.00,,Clear,0,2012-11-07 07:53:00